Powrót do katalogu

FENGYUN 1C DEB

AktywnySSO
NORAD 31068·DEBRIS·🇨🇳 China

Wystrzelony May 10, 1999 z Taiyuan Satellite Launch Center

Loading…

Następne Przeloty (najbliższe 24 godziny)

TLE

Starzejące sięSource: Space-Track

Epoka: Sep 11, 2026, 03:52 UTC

1 31068U 99025BFN 26254.16161972  .00000293  00000-0  16838-3 0  9998
2 31068  98.6592 230.5556 0165595  65.5823 296.2526 14.09393570    19

Śledź FENGYUN 1C DEB w czasie rzeczywistym z AllMySat

Download on the App Store